This demonstration page uses our WeatherBlox Daily Observations layout. Learn more.

Left ArrowRight Arrow

53.62937, 11.41316

Hourly Observations for May 20, 2021

Temp ( °F °C ) Dew Point ( °F °C ) Humidity (%) Winds ( mph kmh ) Pressure ( in mb ) Visibility ( mi km ) Precip ( " mm )
7:50 am 07:50 Mostly Cloudy 46 8 45 7 93 93 SSW 6 9 30.06 1018 30 48 N/A
8:20 am 08:20 Partly Cloudy 50 10 45 7 82 82 SW 5 7 30.06 1018 30 48 N/A
8:50 am 08:50 Partly Cloudy 52 11 45 7 77 77 SW 7 11 30.06 1018 30 48 N/A
9:20 am 09:20 Partly Cloudy 52 11 45 7 77 77 SW 7 11 30.06 1018 30 48 N/A
9:50 am 09:50 Partly Cloudy 54 12 43 6 67 67 WSW 7 11 30.06 1018 30 48 N/A
10:20 am 10:20 Partly Cloudy 54 12 43 6 67 67 SW 7 11 30.06 1018 30 48 N/A
10:50 am 10:50 Partly Cloudy 54 12 41 5 63 63 SW 7 11 30.06 1018 30 48 N/A
11:20 am 11:20 Partly Cloudy 55 13 43 6 63 63 SW 9 15 30.06 1018 30 48 N/A
11:50 am 11:50 Partly Cloudy 55 13 43 6 63 63 SW 8 13 30.06 1018 30 48 N/A
12:20 pm 12:20 Mostly Cloudy 55 13 43 6 63 63 SW 8 13 30.06 1018 30 48 N/A
12:50 pm 12:50 Mostly Cloudy 57 14 45 7 63 63 SW 9 15 30.06 1018 30 48 N/A
1:20 pm 13:20 Mostly Cloudy 57 14 45 7 63 63 SSW 9 15 30.03 1017 30 48 N/A
1:50 pm 13:50 Mostly Cloudy 57 14 45 7 63 63 SSW 12 19 30.03 1017 30 48 N/A
2:20 pm 14:20 Mostly Cloudy with Showers Nearby 59 15 45 7 59 59 SSW 13 20 30.03 1017 30 48 N/A
2:50 pm 14:50 Mostly Cloudy 59 15 43 6 55 55 SSW 14 22 30.03 1017 30 48 N/A
3:20 pm 15:20 Mostly Cloudy with Showers Nearby 61 16 45 7 55 55 S 10 17 30.03 1017 30 48 N/A
3:50 pm 15:50 Mostly Cloudy with Light Rain 52 11 45 7 77 77 SW 18 30 30.03 1017 4 6 N/A
4:20 pm 16:20 Mostly Cloudy with Showers Nearby 52 11 45 7 77 77 SSW 7 11 30.03 1017 6 9 N/A
4:50 pm 16:50 Mostly Cloudy 55 13 45 7 67 67 SSE 5 7 30.00 1016 30 48 N/A
5:20 pm 17:20 Mostly Sunny 59 15 45 7 59 59 SSW 7 11 30.00 1016 30 48 N/A
5:50 pm 17:50 Mostly Sunny 59 15 45 7 59 59 SSW 7 11 29.97 1015 30 48 N/A
6:20 pm 18:20 Mostly Sunny 61 16 45 7 55 55 WSW 7 11 29.97 1015 30 48 N/A
6:50 pm 18:50 Mostly Sunny 59 15 43 6 55 55 SW 7 11 29.97 1015 30 48 N/A
7:20 pm 19:20 Mostly Sunny 57 14 45 7 63 63 SW 5 7 29.97 1015 30 48 N/A
7:50 pm 19:50 Mostly Sunny 57 14 46 8 67 67 SW 5 7 29.94 1014 7 11 N/A
8:20 pm 20:20 Mostly Sunny 57 14 46 8 67 67 S 3 6 29.94 1014 30 48 N/A
8:50 pm 20:50 Mostly Sunny 55 13 45 7 67 67 VRB 1 2 29.94 1014 7 11 N/A
9:20 pm 21:20 Mostly Sunny 54 12 46 8 77 77 ENE 1 2 29.94 1014 7 11 N/A
9:50 pm 21:50 Mostly Clear 52 11 46 8 82 82 N N/A 29.94 1014 7 11 N/A

Powered by AerisWeather